Flight Track Log - Related Links

Times and Time Zones

All times are in EDT time to prevent confusion due to time zone crossing. See the UPS1337 flight status page for this flight to view local times or setup timezone preferences in your user account.

Time Position Orientation Groundspeed Altitude Reporting Facility
EDT Latitude Longitude Course Direction KTS MPH feet Rate Location/Type
11:49PM 35.8981 -78.7736 270° West 194 223 1,700  Level Washington Center
11:50PM 35.9244 -78.7617 24° Northeast 209 241 2,900 2,883 Climbing Washington Center
11:51PM 35.9822 -78.7458 13° North 282 325 5,400 2,625 Climbing Washington Center
11:51PM 35.9900 -78.7503 335° Northwest 266 306 5,700 3,934 Climbing Washington Center
11:52PM 36.0044 -78.8314 282° West 286 329 9,400 3,836 Climbing Washington Center
11:52PM 36.0047 -78.8331 282° West 275 316 9,600 2,357 Climbing Washington Center
11:53PM 36.0659 -78.9774 270° West  Level Estimated
11:54PM 36.1078 -79.0977 264° West  Level Estimated
11:55PM 36.1497 -79.2181 270° West  Level Estimated
11:58PM 35.9365 -79.5899 288° West 434 499 23,700  Level FlightAware ADS-B (GCTS / TFS)
11:58PM 35.9612 -79.6845 288° West 439 505 25,000 1,875 Climbing FlightAware ADS-B (GCTS / TFS)
11:59PM 35.9851 -79.7759 288° West 446 513 26,200 1,538 Climbing FlightAware ADS-B (GCTS / TFS)
12:00AM 36.0097 -79.8690 288° West 459 528 27,000 1,350 Climbing FlightAware ADS-B (GCTS / TFS)
12:00AM 36.0384 -79.9792 288° West 466 536 28,000 1,610 Climbing FlightAware ADS-B (GCTS / TFS)
12:01AM 36.0572 -80.0505 288° West 468 539 29,200 1,870 Climbing FlightAware ADS-B (GCTS / TFS)
12:02AM 36.0894 -80.1750 288° West 464 534 30,400 1,973 Climbing FlightAware ADS-B (GCTS / TFS)
12:02AM 36.1042 -80.2326 288° West 455 524 31,600 1,944 Climbing FlightAware ADS-B (GCTS / TFS)
12:03AM 36.1345 -80.3510 288° West 449 517 32,700 1,516 Climbing FlightAware ADS-B (NZFP)
12:04AM 36.1705 -80.4903 288° West 449 517 34,000 867 Climbing FlightAware ADS-B (NZFP)
12:04AM 36.1902 -80.5689 287° West 453 521 34,000  Level FlightAware ADS-B (GCTS / TFS)
12:05AM 36.2162 -80.6703 287° West 452 520 34,000  Level FlightAware ADS-B (GCTS / TFS)
12:06AM 36.2391 -80.7609 287° West 447 514 34,000  Level FlightAware ADS-B (NZFP)
12:07AM 36.2756 -80.9065 287° West 443 510 34,000  Level FlightAware ADS-B (NZFP)
12:07AM 36.2945 -80.9816 287° West 446 513 34,000  Level FlightAware ADS-B (NZFP)
12:08AM 36.3134 -81.0572 287° West 445 512 34,000  Level FlightAware ADS-B (GCTS / TFS)
12:08AM 36.3308 -81.1252 287° West 442 509 34,000  Level FlightAware ADS-B (NZFP)
12:09AM 36.3565 -81.2285 287° West 437 503 34,000  Level FlightAware ADS-B (NZFP)
12:10AM 36.3886 -81.3263 294° West 440 506 34,000  Level FlightAware ADS-B (NZFP)
12:10AM 36.4164 -81.4020 295° West 441 507 34,000  Level FlightAware ADS-B (NZFP)
12:11AM 36.4366 -81.4571 295° West 441 507 34,000  Level FlightAware ADS-B (NZFP)
12:11AM 36.4550 -81.5054 294° West 438 504 34,000  Level FlightAware ADS-B (NZFP)
12:12AM 36.4939 -81.6142 294° West 439 505 34,000  Level Indianapolis Center
12:13AM 36.5444 -81.7508 295° West 439 505 34,000  Level Indianapolis Center
12:14AM 36.6031 -81.9156 294° West 429 494 34,000  Level Atlanta Center
12:15AM 36.6447 -82.0281 295° West 439 505 34,000  Level Indianapolis Center
12:16AM 36.6947 -82.1656 294° West 439 505 34,000  Level Indianapolis Center
12:17AM 36.7436 -82.3031 294° West 438 504 34,000  Level Indianapolis Center
12:18AM 36.7931 -82.4408 294° West 437 503 34,000  Level Indianapolis Center
12:19AM 36.8422 -82.5783 294° West 437 503 34,000  Level Indianapolis Center
12:20AM 36.8911 -82.7147 294° West 435 501 34,000  Level Indianapolis Center
12:21AM 36.9419 -82.8622 293° West 436 502 34,000  Level Indianapolis Center
12:22AM 36.9906 -83.0019 294° West 436 502 34,000  Level Indianapolis Center
12:23AM 37.0428 -83.1486 294° West 438 504 34,000  Level Indianapolis Center
12:24AM 37.0914 -83.2875 294° West 437 503 34,000 -1,615 Level Indianapolis Center
12:33AM 37.5137 -84.5283 292° West 407 468 18,200 -1,891 Descending FlightAware ADS-B
12:34AM 37.5550 -84.6539 293° West 383 441 15,500 -2,792 Descending FlightAware ADS-B
12:34AM 37.5739 -84.7089 293° West 380 437 13,500 -1,591 Descending FlightAware ADS-B
12:37AM 37.6819 -84.9925 313° West 298 343 10,700 -1,170 Descending FlightAware ADS-B
12:38AM 37.7350 -85.0643 313° West 271 312 9,600 -1,350 Descending FlightAware ADS-B
12:39AM 37.7858 -85.1350 308° West 269 310 8,000 -1,600 Descending FlightAware ADS-B
12:40AM 37.8060 -85.2262 284° West 274 315 6,400 -1,600 Descending FlightAware ADS-B
12:41AM 37.8262 -85.3196 286° West 276 318 4,800 -1,333 Descending FlightAware ADS-B
12:42AM 37.8475 -85.4062 288° West 258 297 3,800 -900 Descending FlightAware ADS-B
12:43AM 37.8712 -85.4948 289° West 257 296 3,000 -443 Descending FlightAware ADS-B
12:44AM 37.8948 -85.5788 297° West 261 300 2,900  Descending FlightAware ADS-B
12:45AM 37.9464 -85.6390 321° Northwest 227 261 3,000 50 Climbing FlightAware ADS-B
12:46AM 37.9985 -85.6674 345° North 188 216 3,000 -149 Level FlightAware ADS-B
12:47AM 38.0491 -85.6840 345° North 189 217 2,700 -600 Descending FlightAware ADS-B
12:48AM 38.0972 -85.7005 345° North 154 177 1,800 -857 Descending FlightAware ADS-B
12:49AM 38.1370 -85.7141 345° North 145 167 1,000 -814 Descending FlightAware ADS-B
12:56AM 38.1667 -85.7333 208° Southwest  Level FlightAware Approximate
12:57AM 38.1741 -85.7365 208° Southwest  Level Estimated

Login

Don't have an account? Register now (free) for customized features, flight alerts, and more!